www.pogodaiklimat.ru
ПОГОДА в Дилене

Архив погоды в Дилене (Нидерланды)

Время
(UTC), дата
16 15.07
17 15.07
18 15.07
19 15.07
20 15.07
21 15.07
22 15.07
23 15.07
00 16.07
01 16.07
02 16.07
03 16.07
04 16.07
05 16.07
06 16.07
07 16.07
08 16.07
09 16.07
10 16.07
11 16.07
12 16.07
13 16.07
14 16.07
15 16.07
16 16.07
17 16.07
18 16.07
19 16.07
20 16.07
21 16.07
22 16.07
23 16.07
00 17.07
01 17.07
02 17.07
03 17.07
04 17.07
05 17.07
06 17.07
07 17.07
08 17.07
09 17.07
10 17.07
11 17.07
12 17.07
13 17.07
14 17.07
15 17.07
16 17.07
17 17.07
18 17.07
19 17.07
20 17.07
21 17.07
22 17.07
23 17.07
00 18.07
01 18.07
02 18.07
03 18.07
04 18.07
05 18.07
06 18.07
07 18.07
08 18.07
09 18.07
10 18.07
11 18.07
12 18.07
13 18.07
14 18.07
15 18.07
16 18.07
17 18.07
18 18.07
19 18.07
20 18.07
21 18.07
22 18.07
23 18.07
00 19.07
01 19.07
02 19.07
03 19.07
04 19.07
05 19.07
06 19.07
07 19.07
08 19.07
09 19.07
10 19.07
11 19.07
12 19.07
13 19.07
14 19.07
15 19.07
16 19.07
17 19.07
18 19.07
19 19.07
20 19.07
21 19.07
22 19.07
23 19.07
00 20.07
01 20.07
02 20.07
03 20.07
04 20.07
05 20.07
06 20.07
07 20.07
08 20.07
09 20.07
10 20.07
11 20.07
12 20.07
13 20.07
14 20.07
15 20.07
16 20.07
17 20.07
18 20.07
19 20.07
20 20.07
21 20.07
22 20.07
23 20.07
00 21.07
01 21.07
02 21.07
03 21.07
04 21.07
05 21.07
06 21.07
07 21.07
08 21.07
09 21.07
10 21.07
11 21.07
12 21.07
13 21.07
14 21.07
15 21.07
16 21.07
17 21.07
18 21.07
19 21.07
20 21.07
21 21.07
22 21.07
23 21.07
00 22.07
01 22.07
02 22.07
03 22.07
04 22.07
05 22.07
06 22.07
07 22.07
08 22.07
09 22.07
10 22.07
11 22.07
12 22.07
13 22.07
14 22.07
15 22.07
16 22.07
Ветер
(напр.,м/с)
Видим. Явления Облачность Т
(С)
Тd
(С)
f
(%)
Тe
(С)
Тes
(С)
Комфортность P
(гПа)
Po
(гПа)
Тmin
(С)
Tmax
(С)
R
(мм)
R24
(мм)
S
(см)
В 4-6 {7} 45 км 10/10 +25.1 +12.8 46 +27 +27 жарко 1009.1 1003.6
ЮВ 2-2 {7} 45 км 10/10 +24.0 +14.2 54 +26 +26 жарко 1009.0 1003.6
СВ 2-2 {7} 45 км 10 баллов +22.7 +15.9 65 +27 +27 душно 1008.5 1003.0 +25.6
В 3-5 {5} 45 км в посл. час дождь 10/10 +21.5 +15.1 67 +25 +25 комфорт 1007.8 1002.6
В 1-2 {4} 45 км в посл. час дождь 10/10 +18.9 +16.8 88 +21 +21 комфорт 1007.7 1002.1 0.2
СВ 2-2 {5} 45 км слаб. ливневой дождь 10 баллов +18.8 +16.5 86 +21 +21 комфорт 1006.9 1001.6 0.1
ЮЗ 3-9 {9} 45 км слаб. ливневой дождь 10/10 +19.8 +15.5 76 +22 +22 комфорт 1006.7 1001.0
В 1-2 {10} 45 км в посл. час дождь 10/10 +17.6 +16.2 91 +19 +19 1006.9 1001.3 0.1
ЮВ 4-6 {10} 45 км 10 баллов +19.0 +16.5 85 +20 +20 1006.2 1001.1
Ю 4-7 {7} 45 км 10/10 +19.5 +17.3 87 +22 +22 комфорт 1006.1 1000.6
Ю 5-10 {10} 45 км ясно +19.2 +16.7 85 +21 +21 комфорт 1006.4 1000.7
ЮЗ 4-7 {10} 45 км ясно +18.1 +16.0 88 +18 +18 1006.9 1001.3
ЮЗ 5-7 {9} 45 км 4/4 300 м +17.1 +14.7 86 +16 +16 1007.6 1002.1
ЮЗ 6-10 {11} 45 км 10/10 600 м +17.2 +13.5 79 +16 +16 1008.4 1002.8
ЮЗ 6-9 {11} 45 км 10 баллов +17.4 +13.6 78 +17 +17 1008.3 1004.1 +17.0 0.5
ЮЗ 7-9 {11} 45 км 6/6 600 м +18.0 +13.5 75 +17 +18 1009.6 1004.2
ЮЗ 8-11 {11} 45 км 6/6 600 м +18.3 +13.1 72 +18 +18 1009.8 1004.8
ЮЗ 7-10 {12} 45 км 9/9 600 м +20.4 +14.4 68 +23 +23 комфорт 1011.0 1004.6
ЮЗ 5-9 {9} 45 км 8/6 1500 м +20.8 +14.2 66 +24 +26 комфорт 1009.7 1004.4
Ю 6-10 {11} 45 км 8/8 1500 м +20.9 +13.8 64 +23 +25 комфорт 1009.4 1004.4
Ю 7-11 {12} 45 км в посл. час дождь 9 баллов +21.2 +13.3 61 +24 +24 комфорт 1010.1 1004.2
ЮЗ 8-11 {13} 45 км 10/9 2000 м +21.0 +12.7 59 +23 +23 комфорт 1010.3 1004.7
ЮЗ 3-6 {13} 11 км слаб. ливневой дождь 10/10 1500 м +15.4 +13.7 90 +15 +15 1011.7 1006.0 0.4
ЮЗ 6-9 {13} 45 км в посл. час дождь 9/9 300 м +18.8 +13.7 72 +19 +20 1011.8 1005.7
ЮЗ 4-7 {11} 45 км в посл. час дождь 9/6 1500 м +20.1 +13.5 66 +22 +23 комфорт 1011.9 1005.9
ЮЗ 4-6 {11} 45 км в посл. час дождь 10/9 1500 м +19.0 +14.3 74 +20 +20 1011.0 1005.9
ЮЗ 3-6 {13} 8000 м слаб. ливневой дождь 10 баллов +16.3 +15.5 95 +16 +16 1011.9 1006.5 +22.1 8
ЮЗ 3-4 {8} 35 км в посл. час дождь 9/8 600 м +16.4 +15.3 93 +16 +16 1012.5 1007.0
ЮЗ 4-5 {6} 26 км 4/4 1500 м +15.9 +15.1 95 +15 +15 1012.9 1007.4
ЮЗ 6-8 {16} 30 км 9/9 600 м +15.8 +14.8 94 +14 +14 1013.0 1007.5
ЮЗ 4-6 {6} 13 км морось 10/9 600 м +16.0 +15.2 95 +15 +15 1013.4 1007.9 0.2
ЮЗ 4-6 {8} 13 км в посл. час дождь 9/9 1500 м +16.0 +15.2 95 +15 +15 1013.9 1008.4
ЮЗ 4-5 {8} 9000 м дымка 6 баллов +15.7 +15.1 96 +15 +15 1014.5 1009.2 0.2
З 3-4 {5} 27 км 9/9 1000 м +15.4 +14.3 93 +15 +15 1015.1 1009.6
З 3-5 {7} 45 км 6/6 1000 м +14.9 +13.4 91 +14 +14 1015.7 1010.0
ЮЗ 2-4 {7} 40 км 3/3 1000 м +13.8 +13.0 95 +13 +13 1016.3 1010.6
З 2-4 {4} 26 км 9/9 1500 м +13.9 +13.2 96 +13 +13 1017.5 1011.4
ЮЗ 3-4 {4} 35 км 9/9 +15.1 +14.1 94 +14 +14 1017.6 1011.1
З 2-4 {7} 45 км 4 балла +16.3 +14.3 88 +16 +18 1018.3 1013.0 +13.6 8.5
З 4-6 {6} 45 км 8/8 1500 м +17.5 +13.8 79 +17 +18 1020.9 1013.8
З 4-6 {7} 45 км 9/6 600 м +18.5 +13.6 73 +19 +20 1022.1 1013.6
З 3-5 {7} 45 км 9/9 1000 м +19.1 +14.1 73 +21 +22 комфорт 1019.5 1014.2
З 4-6 {6} 45 км 10/9 600 м +19.9 +14.3 70 +22 +22 комфорт 1018.8 1015.0
З 2-3 {6} 45 км 8/8 1500 м +20.0 +14.6 71 +23 +26 комфорт 1021.1 1014.8
З 4-6 {7} 45 км 10 баллов +21.3 +13.9 63 +24 +24 комфорт 1019.5 1015.2
З 2-3 {5} 45 км 8/8 1500 м +21.8 +14.8 64 +25 +28 комфорт 1021.6 1016.5
СЗ 1-2 {6} 45 км в посл. час дождь 10/10 +21.0 +15.2 69 +25 +25 комфорт 1016.2 1017.4
СЗ 2-4 {6} 45 км в посл. час дождь 10/10 1500 м +22.3 +14.2 60 +26 +26 жарко 1022.8 1016.0
СЗ 2-4 {4} 45 км в посл. час дождь 9/9 1000 м +21.3 +15.4 69 +24 +25 комфорт 1022.2 1016.1
СЗ 4-6 {7} 45 км 5/5 1000 м +21.9 +14.2 62 +25 +26 комфорт 1019.5 1014.4
СЗ 3-4 {7} 45 км ясно +21.5 +14.1 63 +24 +25 комфорт 1020.2 1014.8 +23.0
С 1-2 {4} 45 км ясно +20.0 +14.3 70 +23 +23 комфорт 1020.0 1014.9
З 1-1 {1} 30 км 6/6 +16.0 +14.5 91 +17 +17 1020.7 1015.0
СЗ 1-1 {4} 11 км 6/0 +14.5 +13.7 95 +15 +15 1022.1 1016.4
СВ 1-1 {1} 1400 м дымка 10/10 +13.6 +13.1 97 +14 +14 1023.1 1017.5
В 1-1 {1} 4300 м дымка 10/10 +12.5 +12.0 97 +12 +12 1024.0 1018.1
ЮВ 1-1 {4} 3300 м в посл. час туман 10 баллов +12.3 +12.3 100 +12 +12 1023.0 1017.6
Ю 1-1 {1} 2200 м дымка 10/10 +12.3 +11.9 97 +12 +12 1023.1 1017.1
ЮВ 1-2 {2} 200 м туман 10/10 +13.1 +12.8 98 +13 +13 1022.7 1017.7
ЮВ 1-1 {2} 5000 м в посл. час туман 10 баллов +12.4 +12.0 97 +12 +12 1022.4 1016.6
С 1-1 {1} 300 м туман 9/9 +11.8 +11.6 99 +12 +12 1021.7 1016.2
штиль 0-1 {2} 8000 м в посл. час туман 10/10 +12.7 +12.3 97 +12 +12 1023.8 1018.0
С 1-1 {2} 9000 м дымка 10 баллов +16.4 +15.6 95 +17 +17 1026.1 1019.6 +11.3 0.0
В 1-2 {2} 27 км 10/10 +19.7 +15.8 78 +23 +23 комфорт 1025.3 1019.4
ЮВ 1-2 {2} 30 км 9/9 +21.7 +16.8 74 +26 +27 душно 1022.2 1018.1
ЮВ 2-3 {3} 35 км 10 баллов +22.5 +15.8 66 +27 +27 душно 1023.1 1019.1
Ю 2-4 {4} 35 км 6/6 +24.0 +16.3 62 +27 +33 жарко 1019.1 1017.6
Ю 2-4 {5} 45 км 9/9 +24.3 +15.0 56 +27 +29 жарко 1020.9 1016.7
Ю 3-5 {5} 45 км 10 баллов +26.1 +16.0 54 +29 +29 жарко 1019.8 1015.8
ЮЗ 2-4 {5} 40 км 4/4 +26.7 +15.2 49 +29 +38 жарко 1022.3 1017.8
Ю 2-3 {3} 45 км 6/6 +26.7 +13.2 43 +28 +33 жарко 1026.9 1017.4
СВ 4-6 {6} 40 км 5 баллов +26.4 +16.2 53 +30 +33 душно 1014.8 1008.2
СВ 3-4 {5} 45 км 9/9 +25.9 +14.6 50 +28 +29 жарко 1022.9 1017.9
СВ 2-4 {4} 45 км 3/3 +26.1 +15.7 53 +29 +31 жарко 1022.5 1016.4
СВ 2-3 {6} 45 км ясно +25.1 +15.3 55 +28 +29 жарко 1018.8 1013.6 +27.3
СВ 2-2 {3} 45 км ясно +22.9 +16.3 66 +27 +28 душно 1016.9 1011.4
СВ 2-3 {3} 45 км 1/1 +19.7 +16.2 80 +23 +23 комфорт 1013.1 1007.6
СВ 3-4 {4} 45 км 10/0 +18.3 +16.0 86 +19 +19 1021.9 1016.1
СВ 3-4 {5} 45 км 10/10 +18.6 +16.1 85 +20 +20 1021.3 1015.7
В 2-4 {5} 40 км 10/10 +18.7 +16.0 84 +20 +20 1021.3 1016.0
В 2-3 {5} 40 км 10 баллов +18.8 +15.8 83 +20 +20 1020.4 1015.1
В 2-3 {3} 40 км 10/10 +18.0 +15.6 86 +19 +19 1020.4 1014.7
В 2-3 {3} 35 км 10/10 +17.8 +15.0 84 +18 +18 1020.1 1014.7
В 2-2 {3} 40 км 8/0 +17.6 +14.6 83 +18 +18 1020.0 1014.7
В 1-2 {2} 45 км 10/10 +17.8 +14.5 81 +19 +19 1022.8 1016.1
В 2-3 {3} 45 км 10/10 +18.4 +14.7 79 +19 +19 1020.9 1015.1
В 2-2 {3} 45 км 10 баллов +19.6 +15.2 76 +22 +22 комфорт 1021.7 1016.4 +17.0
ЮВ 2-3 {3} 45 км 10/10 +22.0 +16.2 70 +26 +26 душно 1026.5 1019.6
ЮВ 3-4 {4} 45 км 10/10 +23.5 +15.1 59 +26 +26 жарко 1021.0 1015.5
ЮВ 3-4 {4} 45 км 10 баллов +24.0 +16.0 61 +27 +27 жарко 1018.0 1012.7
ЮВ 3-5 {5} 45 км 10/10 +24.6 +16.8 62 +28 +28 душно 1019.0 1014.7
В 2-3 {5} 45 км 10/10 +25.2 +18.5 66 +30 +30 душно 1019.3 1014.5
В 2-4 {5} 45 км 10 баллов +25.8 +18.3 63 +30 +30 душно 1020.4 1014.6
В 3-5 {5} 45 км 10/10 +27.7 +16.7 51 +31 +31 душно 1015.7 1009.3
СВ 3-4 {5} 45 км 10/10 +27.6 +16.1 50 +31 +31 душно 1018.9 1012.9
В 3-5 {5} 45 км 10 баллов +27.7 +17.6 54 +32 +32 очень душно 1016.1 1010.8
В 2-4 {5} 45 км 10/10 +27.6 +16.5 51 +31 +32 душно 1016.3 1010.6
В 2-4 {4} 45 км 10/10 +27.0 +16.5 53 +31 +31 душно 1015.8 1010.4
В 3-5 {5} 45 км 10 баллов +26.8 +16.5 53 +30 +30 душно 1014.7 1009.3 +28.7
В 2-2 {4} 45 км 10/10 +24.8 +16.8 61 +28 +28 жарко 1014.9 1009.9
В 2-3 {3} 45 км ясно +22.3 +16.5 70 +27 +27 душно 1014.6 1008.5
В 2-3 {5} 45 км 10/0 +21.5 +15.2 67 +25 +25 комфорт 1015.1 1008.8
В 2-2 {3} 45 км 4/4 +19.5 +15.0 75 +22 +22 комфорт 1012.0 1007.3
В 2-2 {2} 45 км ясно +19.4 +14.9 75 +22 +22 комфорт 1014.8 1009.4
В 1-2 {5} 45 км ясно +18.9 +14.6 76 +21 +21 комфорт 1014.8 1009.1
В 2-2 {3} 45 км 9/9 +19.2 +14.4 74 +21 +21 комфорт 1012.8 1008.3
В 1-2 {2} 45 км ясно +18.7 +14.8 78 +21 +21 комфорт 1012.5 1007.0
В 2-2 {3} 26 км ясно +17.4 +14.5 83 +18 +18 1012.0 1007.1
В 2-2 {2} 45 км ясно +16.9 +14.4 85 +17 +17 1013.4 1007.8
В 2-2 {2} 45 км ясно +17.3 +15.2 87 +18 +18 1014.9 1009.9
В 1-2 {3} 45 км ясно +21.6 +17.0 75 +26 +28 душно 1016.2 1009.2 +16.1
ЮВ 1-2 {3} 45 км ясно +24.0 +17.1 65 +28 +34 душно 1012.3 1011.7
ЮВ 2-2 {3} 45 км ясно +26.2 +16.5 55 +30 +38 душно 1012.1 1007.3
В 3-4 {4} 45 км ясно +27.2 +16.0 50 +30 +40 душно 1009.7 1003.9
ЮВ 3-5 {6} 45 км ясно +28.1 +15.9 47 +31 +43 душно 1013.2 1005.5
ЮВ 2-4 {6} 40 км ясно +28.3 +17.1 51 +32 +48 душно 1012.7 1004.2
Ю 3-6 {6} 40 км 1 балл +29.6 +16.1 44 +33 +45 душно 1005.3 1003.7
ЮВ 2-3 {6} 45 км 1/1 +29.7 +17.1 47 +34 +47 очень душно 1009.5 1004.8
Ю 3-5 {7} 45 км 6/6 +30.2 +16.2 43 +33 +37 душно 1011.4 1002.6
Ю 4-4 {7} 45 км 10/0 +30.0 +17.0 46 +34 +34 очень душно 1005.8 1001.7
ЮВ 2-3 {4} 45 км 10/10 +30.0 +16.8 45 +34 +34 очень душно 1008.6 1001.1
В 2-3 {4} 45 км 10/10 +30.1 +17.4 47 +34 +34 очень душно 1004.9 1000.4
В 2-2 {7} 45 км 10 баллов +27.7 +18.7 58 +33 +33 очень душно 1005.5 1000.2 +30.8
ЮЗ 5-8 {13} 45 км 10/10 +24.3 +16.5 62 +28 +28 душно 1006.0 1000.8
В 1-2 {7} 45 км в посл. час дождь 10/10 +21.3 +18.6 85 +26 +26 душно 1007.3 1001.9
ЮЗ 1-2 {13} 45 км 10 баллов +20.3 +18.2 88 +25 +25 комфорт 1006.1 1000.8
СЗ 2-2 {3} 45 км ясно +19.1 +17.2 89 +21 +21 комфорт 1006.5 1001.0
СЗ 1-1 {2} 40 км 5/5 +18.8 +17.4 92 +21 +21 комфорт 1006.3 1001.0
ЮВ 2-2 {13} 45 км 10 баллов +18.9 +17.1 89 +21 +21 комфорт 1006.8 1000.9
ЮВ 1-2 {2} 29 км 10/10 +17.7 +16.6 93 +19 +19 1005.5 1000.5
ЮВ 2-2 {3} 35 км 10/10 +17.6 +16.6 94 +18 +18 1006.6 1000.7
В 2-2 {3} 40 км 10 баллов +18.6 +16.7 89 +20 +20 1005.4 1000.0
ЮВ 1-2 {2} 40 км 10/10 +18.8 +16.8 88 +21 +21 комфорт 1006.5 1001.0
СВ 1-1 {3} 40 км слаб. ливневой дождь 10/10 +20.3 +18.3 88 +25 +25 комфорт 1002.6 998.9
штиль 0-1 {3} 45 км в посл. час дождь 10 баллов +21.0 +18.8 87 +25 +25 комфорт 1007.4 1002.4 +17.4 0.1
ЮВ 2-3 {3} 45 км 10/10 +22.4 +18.9 81 +28 +28 душно 1004.8 1002.1
ЮЗ 3-4 {4} 45 км зарница 10/10 1500 м +22.9 +19.4 81 +29 +29 очень душно 1014.6 1003.9
З 4-6 {6} 29 км в посл. час дождь 10 баллов +23.2 +19.8 81 +30 +30 очень душно 1012.2 1005.1
СЗ 4-6 {6} 20 км 10/10 300 м +22.8 +19.3 81 +29 +29 очень душно 1007.6 1002.6
СЗ 2-4 {7} 45 км 9/9 1500 м +23.6 +19.0 75 +28 +30 душно 1005.0 999.7
З 5-7 {7} 23 км слаб. морось с дождем 10 баллов +21.9 +19.8 88 +28 +29 душно 1004.7 997.8
З 4-5 {6} 5000 м слаб. дождь 10/10 2000 м +21.1 +20.1 94 +26 +26 душно 1008.6 1005.8 0.1
З 2-3 {6} 14 км в посл. час дождь 10/8 300 м +21.7 +19.7 88 +27 +28 душно 1010.6 1004.1
З 3-5 {7} 45 км 10/10 300 м +22.8 +18.9 79 +29 +29 очень душно 1012.7 1005.1
З 4-6 {6} 29 км 10/6 600 м +22.0 +19.0 83 +27 +28 душно 1008.0 1002.5
З 3-5 {8} 40 км слаб. ливневой дождь 10/9 1000 м +21.0 +18.2 84 +26 +26 душно 1009.9 1004.6
З 4-5 {8} 35 км в посл. час дождь 10 баллов +20.8 +17.5 81 +25 +25 комфорт 1010.2 1004.7 +24.4
СЗ 2-4 {5} 45 км 10/10 1500 м +20.4 +17.3 82 +24 +24 комфорт 1010.7 1005.2
З 3-4 {4} 45 км 10/10 300 м +19.7 +17.0 84 +22 +22 комфорт 1011.4 1005.9
СЗ 3-4 {6} 22 км 10/10 300 м +18.2 +16.1 88 +19 +19 1012.0 1006.3
СЗ 4-6 {6} 45 км 5/5 1000 м +17.6 +14.6 83 +17 +17 1012.1 1006.3
З 2-3 {5} 45 км 6/6 +16.0 +14.1 88 +16 +16 1013.3 1007.4
З 2-2 {6} 22 км 10 баллов +15.4 +14.6 95 +15 +15 1014.1 1008.4
З 2-2 {3} 13 км 3/3 200 м +14.7 +14.1 96 +14 +14 1013.3 1007.6
З 2-3 {3} 12 км 10/10 +13.7 +13.3 97 +13 +13 1014.7 1008.9
ЮЗ 2-3 {3} 9000 м дымка 4 балла +13.2 +12.9 98 +12 +12 1014.2 1008.8
ЮЗ 2-2 {3} 3800 м дымка ясно +12.5 +12.5 100 +11 +11 1014.8 1009.2
штиль 0 {2} 3500 м дымка ясно +12.7 +12.7 100 +12 +13 1018.5 1013.6
З 2-3 {4} 35 км ясно +15.6 +14.2 91 +15 +18 1017.8 1012.0 +12.4 0.1
З 3-5 {5} 45 км ясно +17.4 +13.2 76 +17 +21 1017.8 1012.1
ЮЗ 2-3 {5} 45 км 5/5 1500 м +19.1 +11.8 63 +21 +25 комфорт 1018.5 1016.1
ЮЗ 3-5 {6} 45 км 4/4 1000 м +20.4 +12.1 59 +23 +28 комфорт 1019.3 1008.0
ЮЗ 4-7 {7} 40 км 8/8 1000 м +20.7 +14.6 68 +24 +26 комфорт 1013.6 1005.9
ЮЗ 4-7 {8} 20 км слаб. ливневой дождь 10/6 600 м +19.9 +15.6 76 +22 +24 комфорт 1018.9 1010.8
З 6-8 {8} 35 км в посл. час дождь 5 баллов +21.8 +14.8 64 +25 +28 комфорт 1019.3 1012.5
ЮЗ 5-7 {10} 35 км 6/6 2000 м +22.9 +14.7 60 +27 +30 душно 1018.1 1014.9
ЮЗ 6-8 {11} 40 км 8/8 +23.8 +15.0 58 +27 +28 жарко 1018.0 1011.9
ЮЗ 5-8 {11} 45 км 6/6 +23.0 +13.1 54 +26 +28 жарко 1017.1 1010.7
ЮЗ 4-7 {8} 45 км 10/10 1500 м +22.6 +13.5 56 +26 +26 жарко 1015.3 1011.1
Местоположение метеостанции Дилен (Нидерланды): широта 52.07 долгота 5.88 высота над уровнем моря 47 м.
В архиве по умолчанию представлена погода в Дилене за последнюю неделю. Архивные данные за месяц целиком и за предыдущие месяцы, начиная с января 2011 года, Вы можете получить, выбрав интересующий диапазон дат из раскрывающегося списка и нажав кнопку "Найти!".
*Определитесь, кто Вы:
Внимание! Время в таблицах - всемирное. Для получения местного времени необходимо прибавить поправку, которая равна 1 ч.
Некоторые строки с данными для отдельных станций могут быть выделены курсивом. Это означает, что фактические данные отсутствуют по различным причинам, а приведенные значения являются расчетными модельными данными для данного пункта наблюдений.
Смотрите также архив погоды в соседних городах и на ближайших метеорологических станциях:
Партнеры нашего сайта:      
Пояснения к столбцам:
  • Ветер - указаны скорость ветра в м/с - средняя за 10 мин, порывы в срок и между сроками (в фигурных скобках) и направление, откуда дует ветер: С - северный,
  • СВ - северо-восточный, В - восточный, ЮВ - юго-восточный, Ю - южный, ЮЗ - юго-западный, З - западный, СЗ - северо-западный.
  • Видимость - горизонтальная дальность видимости в метрах или километрах. При видимости от 1 до 10 км при отсутствии осадков обычно наблюдается дымка, при ухудшении видимости до 1 км и менее - туман. В сухую погоду видимость может ухудшаться дымом, пылью или мглою.
  • Явления - указаны атмосферные явления, наблюдавшиеся в срок или в последний час перед сроком; фигурными скобками обозначены явления, наблюдавшиеся между сроками (за 1-3 часа до срока); квадратными скобками обозначены град или гололедные отложения с указанием их диаметра в мм.
  • Облачность - указаны через наклонную черту общая и нижняя облачность в баллах и высота нижней границы облаков в метрах; квадратными скобками обозначены формы облаков: Ci - перистые, Cs - перисто-слоистые, Cc - перисто-кучевые, Ac - высококучевые, As - высокослоистые, Sc - слоисто-кучевые, Ns - слоисто-дождевые, Cu - кучевые, Cb - кучево-дождевые. Подробнее классификацию облаков см. в Атласе облаков (PDF).
  • T - Температура воздуха - температура, измеренная на высоте 2 м над землей.
  • Td - Температура точки росы - температура, при понижении до которой содержащийся в воздухе водяной пар достигнет насыщения.
  • f - Относительная влажность воздуха - влажноcть воздуха, измеренная на высоте 2 м над землей.
  • Te - Эффективная температура - температура, которую ощущает одетый по сезону человек в тени. Характеристика душности погоды. При расчете учитывается влияние влажности воздуха и скорости ветра на теплоощущения человека.
  • Tes - Эффективная температура на солнце - температура, которую ощущает человек, с поправкой на солнечный нагрев. Характеристика знойности погоды. Зависит от высоты солнца над горизонтом, облачности и скорости ветра. Ночью, в пасмурную погоду, а также при ветре 12 м/с и более поправка равна нулю.
  • P - Атмосферное давление - приведенное к уровню моря атмосферное давление.
  • Po - Атмосферное давление - измеренное на уровне метеостанции атмосферное давление.
  • Tmin - Минимальная температура - минимум температуры воздуха на высоте 2 м над землей.
  • Tmax - Максимальная температура - максимум температуры воздуха на высоте 2 м над землей.
  • R - Количество осадков - Количество выпавших осадков за период времени, мм. При наведении курсора мыши на число - период времени, за который выпало указанное количество осадков.
  • R24 - Количество осадков - Количество выпавших осадков за 24 часа, мм.
  • S - Снежный покров - Высота снежного покрова, см. При наведении курсора мыши на число - состояние снежного покрова и степень покрытия местности в баллах.